Disclaimer

Please do not use the information listed here in-flight or in-navigation, as they are not provided to us by the airports but are provided by volunteers, so they might be outdated.

Search


Regions


Airport information page

Radio informations:
Tower (TWR) - 129.3 MHz

Airport informations:
Latitude: 53° 12' 25.00" N
Longitude: 063° 33' 01.00" E
Elevation: 595 feet - 181 meters
Operating hours: 24 hour operations
Operating agency: Civil government, landing fees and diplomatic clearance may be required
Timezone: UTC+6
Fuel: Jet B, Wide cut turbine fuel, Without icing inhibitor.

Runway information:
15/33 - 8150 x 157 feet< - >2484 x 48 meters

Recent METARs:
UAUU 152100Z 18001MPS 1200 R33/1600 BR OVC002 M11/M13 Q1019 R33/850152 NOSIG RMK QBB080 QFE749/0998
UAUU 152200Z 19001MPS 6000 BKN003 OVC030 M12/M13 Q1020 R33/850152 NOSIG RMK QBB090 QFE749/0999
UAUU 152230Z 19001MPS 6000 BKN002 OVC030 M12/M13 Q1020 R33/850152 NOSIG RMK QBB070 QFE749/0999

Airport on the map: